Погода в Печках

Россия / Псковская область     57°50′27″N   27°59′25″E
темп.,
°C
ветер,
м/с
пор.,
м/с
влажн.,
%
обл.,
%
осадки,
мм/ч
давл.,
гПа
погр.,
м
22 января, сб
сб2200:00−5с499295 0.0 1002344
03:00−5с499592 0.3 1005475
06:00−5ссз51093100 0.1 1007496
09:00−4с71391100 0.5 1009855
12:00−3ссз71288100 0.1 1011770
15:00−4ссз5992100 0.2 1013545
18:00−6с5993100 0.1 1016408
21:00−7ссз4895100 0.5 1019336
23 января, вс
вс2300:00−8с249678 0.3 1021118
03:00−11ссз239981 0.3 102346
06:00−13с119982 0.0 102512
09:00−14ююв1110082 0.0 102710
12:00−10ю2291100 0.0 103087
15:00−7ю2487100 0.0 1031196
18:00−8ююз269378 0.0 1032104
21:00−8ю359491 0.0 103392
24 января, пн
пн2400:00−7ююз389279 0.0 1034187
03:00−6ююз499089 0.0 1034242
06:00−6ююз41087100 0.0 1033265
09:00−6ююз4108757 0.0 1032259
12:00−5ю513835 0.0 1031354
15:00−4ююз615785 0.0 1029460
18:00−5ююз6168179 0.0 1027468
21:00−3ююз71585100 0.0 1024509
25 января, вт
вт2500:00−3ююз61490100 0.0 1022571
03:00−2ююз51392100 0.1 1020546
06:00−1ююз51294100 0.2 1017532
09:00−1юз51297100 0.8 1015546
12:00+1сз4999100 0.6 1015563
15:000ссз6108886 0.6 1017683
18:00−2сз511856 0.0 1019565
21:00−5сз512895 0.0 1021419
26 января, ср
ср2600:00−6сз512905 0.0 1022363
03:00−7сз49927 0.0 1023224
06:00−8сз379521 0.0 1024138
09:00−9зсз259689 0.0 102481
12:00−6з138942 0.0 1023106
15:00−5ююз2486100 0.0 1021152
18:00−7ю3793100 0.0 1022162
21:00−6ю41190100 0.0 1019345